Dansville, NY

10:44 PM EST on December 11, 2019 (GMT -0500)
Dansville Municipal

Weather History for KDSV - October, 2019

Change the Weather History Date:

Monday, October 21, 2019

  Actual Average Record
Temperature  
Mean Temperature 54 °F -  
Max Temperature 68 °F 58 °F 83 °F (1963)
Min Temperature 39 °F 36 °F 16 °F (1974)
Degree Days  
Heating Degree Days 12    
Growing Degree Days 4 (Base 50)    
Moisture  
Dew Point 43 °F    
Average Humidity 70    
Maximum Humidity 97    
Minimum Humidity 36    
Precipitation  
Precipitation 0.00 in - - ()
Sea Level Pressure  
Sea Level Pressure 30.06 in    
Wind  
Wind Speed 7 mph (SE)    
Max Wind Speed 15 mph    
Max Gust Speed 24 mph    
Visibility 10 miles    
Events      
Averages and records for this station are not official NWS values.
T = Trace of Precipitation, MM = Missing Value Source: NWS Daily Summary

Daily Weather History Graph

Daily Weather History Graph

Search for Another Location

Airport or City:

Astronomy

Oct. 21, 2019 Rise Set
Actual Time 7:30 AM EDT 6:19 PM EDT
Civil Twilight 7:02 AM EDT 6:48 PM EDT
Nautical Twilight 6:29 AM EDT 7:20 PM EDT
Astronomical Twilight 5:56 AM EDT 7:53 PM EDT
Moon No Moon Rise 2:51 PM EDT (10/21)
Length of Visible Light 11h 46m
Length of Day
10h 48m
Waning Gibbous, 48% of the Moon is Illuminated
Oct 21
Waning Gibbous
Oct 27
New
Nov 4
First Quarter
Nov 12
Full
Nov 19
Last Quarter

Hourly Weather History & Observations

Time (EDT) Temp. Windchill Dew Point Humidity Pressure Visibility Wind Dir Wind Speed Gust Speed Precip Events Conditions
12:54 AM 45.0 °F 42.6 °F 43.0 °F 93% 30.06 in 10.0 mi South 4.6 mph - N/A   Clear
1:54 AM 44.1 °F - 42.1 °F 93% 30.07 in 10.0 mi Calm Calm - N/A   Clear
2:54 AM 43.0 °F 40.3 °F 42.1 °F 97% 30.08 in 10.0 mi SE 4.6 mph - N/A   Clear
3:54 AM 43.0 °F 39.5 °F 41.0 °F 93% 30.08 in 10.0 mi SE 5.8 mph - N/A   Clear
4:54 AM 42.1 °F 38.4 °F 39.9 °F 92% 30.09 in 10.0 mi SSE 5.8 mph - N/A   Clear
5:54 AM 41.0 °F 37.1 °F 39.0 °F 93% 30.13 in 10.0 mi SSE 5.8 mph - N/A   Clear
6:54 AM 39.9 °F 36.7 °F 39.0 °F 97% 30.12 in 10.0 mi SE 4.6 mph - N/A   Clear
7:54 AM 41.0 °F 37.1 °F 39.0 °F 93% 30.13 in 10.0 mi SSE 5.8 mph - N/A   Clear
8:54 AM 43.0 °F 39.5 °F 39.9 °F 89% 30.14 in 10.0 mi SSE 5.8 mph - N/A   Clear
9:54 AM 48.9 °F - 43.0 °F 80% 30.13 in 10.0 mi SSE 5.8 mph - N/A   Clear
10:54 AM 55.9 °F - 46.9 °F 72% 30.12 in 10.0 mi ESE 4.6 mph - N/A   Clear
11:54 AM 64.0 °F - 48.0 °F 56% 30.09 in 10.0 mi SSE 5.8 mph - N/A   Clear
12:54 PM 66.0 °F - 44.1 °F 45% 30.07 in 10.0 mi ESE 15.0 mph - N/A   Clear
1:54 PM 68.0 °F - 46.0 °F 45% 30.04 in 10.0 mi SE 10.4 mph - N/A   Clear
2:54 PM 68.0 °F - 39.9 °F 36% 30.02 in 10.0 mi ESE 13.8 mph - N/A   Clear
3:54 PM 68.0 °F - 43.0 °F 40% 29.99 in 10.0 mi East 13.8 mph - N/A   Clear
4:54 PM 68.0 °F - 44.1 °F 42% 30.00 in 10.0 mi ESE 13.8 mph - N/A   Clear
5:54 PM 64.9 °F - 43.0 °F 45% 29.99 in 10.0 mi SSE 11.5 mph - N/A   Clear
6:54 PM 62.1 °F - 44.1 °F 52% 30.00 in 10.0 mi SE 10.4 mph - N/A   Clear
7:54 PM 60.1 °F - 46.0 °F 60% 29.99 in 10.0 mi SSE 10.4 mph - N/A   Clear
8:54 PM 61.0 °F - 46.0 °F 58% 29.96 in 10.0 mi SSE 13.8 mph - N/A   Clear
9:54 PM 61.0 °F - 48.0 °F 62% 29.96 in 10.0 mi SE 15.0 mph 24.2 mph N/A   Clear